K5PCJ Weather Reports


Display with metric or nautical units.
time (UTC)temp
F
wind
direction
speed
MPH
gust
MPH
rain 1hr
in
rain 24hr
in
rain mn
in
humidity
%
barometer
mb
20260505183543 81 309 1.0 9.0 0.00 0.00 0.00 81 1009.7
20260505183053 82 37 2.0 9.0 0.00 0.00 0.00 81 1009.7
20260505182543 82 23 0.0 3.0 0.00 0.00 0.00 81 1009.7
20260505182045 81 18 0.0 4.0 0.00 0.00 0.00 81 1009.7
20260505181549 81 32 1.0 4.0 0.00 0.00 0.00 82 1009.7
20260505181046 80 8 1.0 2.0 0.00 0.00 0.00 82 1009.7
20260505180542 80 25 1.0 4.0 0.00 0.00 0.00 82 1009.7
20260505180050 80 0 0.0 4.0 0.00 0.00 0.00 82 1009.7
20260505175540 80 54 0.0 4.0 0.00 0.00 0.00 82 1009.8
20260505175044 80 81 1.0 6.0 0.00 0.00 0.00 82 1009.8
20260505174552 80 34 1.0 6.0 0.00 0.00 0.00 82 1009.8
20260505174044 80 53 1.0 6.0 0.00 0.00 0.00 83 1009.9
20260505173547 80 355 1.0 3.0 0.00 0.00 0.00 83 1010.0
20260505173050 80 354 1.0 3.0 0.00 0.00 0.00 83 1010.2
20260505172543 79 0 0.0 0.0 0.00 0.00 0.00 85 1010.2
20260505172041 79 0 0.0 0.0 0.00 0.00 0.00 85 1010.2
20260505171546 79 0 0.0 0.0 0.00 0.00 0.00 85 1010.3
20260505171048 78 0 0.0 0.0 0.00 0.00 0.00 85 1010.2
20260505170541 78 0 0.0 1.0 0.00 0.00 0.00 86 1010.2
20260505170046 78 0 0.0 2.0 0.00 0.00 0.00 86 1010.2
20260505165540 78 25 0.0 2.0 0.00 0.00 0.00 86 1010.2
20260505165048 78 28 0.0 1.0 0.00 0.00 0.00 85 1010.4
20260505164549 78 53 0.0 2.0 0.00 0.00 0.00 85 1010.3
20260505164040 78 0 0.0 2.0 0.00 0.00 0.00 85 1010.3
20260505163540 78 30 1.0 2.0 0.00 0.00 0.00 85 1010.3
20260505163051 78 38 0.0 2.0 0.00 0.00 0.00 85 1010.2
20260505162543 78 56 0.0 4.0 0.00 0.00 0.00 86 1010.1
20260505162041 77 9 0.0 4.0 0.00 0.00 0.00 86 1010.1
20260505161544 77 8 1.0 4.0 0.00 0.00 0.00 85 1010.2
20260505161041 77 0 1.0 2.0 0.00 0.00 0.00 85 1010.2
20260505160542 77 39 0.0 2.0 0.00 0.00 0.00 85 1010.3
20260505160105 78 332 1.0 2.0 0.00 0.00 0.00 85 1010.3
20260505153052 78 67 0.0 2.0 0.00 0.00 0.00 85 1010.1
20260505152540 77 330 0.0 2.0 0.00 0.00 0.00 85 1010.0
20260505152045 77 30 0.0 2.0 0.00 0.00 0.00 85 1010.1
20260505151549 77 32 0.0 2.0 0.00 0.00 0.00 85 1010.1
20260505151046 77 0 0.0 4.0 0.00 0.00 0.00 85 1010.1
20260505150541 77 44 0.0 4.0 0.00 0.00 0.00 85 1010.2
20260505140544 75 35 1.0 3.0 0.00 0.00 0.00 86 1009.9
20260505124553 73 359 1.0 2.0 0.00 0.00 0.00 87 1009.6
20260505124040 73 351 0.0 2.0 0.00 0.00 0.00 87 1009.6
20260505123543 73 16 1.0 4.0 0.00 0.00 0.00 87 1009.5
20260505123049 73 341 1.0 4.0 0.00 0.00 0.00 87 1009.7
20260505122543 73 0 0.0 2.0 0.00 0.00 0.00 87 1009.6
20260505122043 73 0 0.0 3.0 0.00 0.00 0.00 87 1009.5
20260505121555 73 9 1.0 3.0 0.00 0.00 0.00 87 1009.3
20260505121045 73 349 1.0 2.0 0.00 0.00 0.00 87 1009.3
20260505120544 73 309 0.0 2.0 0.00 0.00 0.00 87 1009.1
20260505120052 73 68 0.0 2.0 0.00 0.00 0.00 87 1009.2
20260505115540 73 349 1.0 4.0 0.00 0.00 0.00 87 1009.1
20260505115040 73 45 1.0 4.0 0.00 0.00 0.00 87 1009.4
20260505114549 73 4 1.0 4.0 0.00 0.00 0.00 87 1009.3
20260505114044 73 8 0.0 4.0 0.00 0.00 0.00 87 1009.4
20260505113547 73 32 0.0 4.0 0.00 0.00 0.00 87 1009.3
20260505113048 73 19 1.0 4.0 0.00 0.00 0.00 87 1009.2
20260505112548 73 52 0.0 4.0 0.00 0.00 0.00 87 1009.1
20260505112044 73 13 1.0 4.0 0.00 0.00 0.00 87 1009.0
20260505111549 73 29 0.0 3.0 0.00 0.00 0.00 87 1009.1
20260505111044 72 0 1.0 3.0 0.00 0.00 0.00 87 1009.1
20260505110544 72 33 1.0 3.0 0.00 0.00 0.00 87 1009.0
20260505102044 72 0 0.0 2.0 0.00 0.00 0.00 88 1009.2
20260505101548 72 0 1.0 2.0 0.00 0.00 0.00 88 1009.1
20260505101041 72 0 0.0 3.0 0.00 0.00 0.00 88 1009.2
20260505100544 72 0 0.0 3.0 0.00 0.00 0.00 88 1009.2
20260505100044 72 14 1.0 3.0 0.00 0.00 0.00 88 1009.1
20260505095540 72 15 1.0 2.0 0.00 0.00 0.00 88 1009.1
20260505095043 71 359 1.0 2.0 0.00 0.00 0.00 88 1009.2
20260505094545 71 349 0.0 2.0 0.00 0.00 0.00 88 1009.1
20260505094041 71 47 0.0 2.0 0.00 0.00 0.00 88 1009.3
20260505093543 71 0 0.0 1.0 0.00 0.00 0.00 89 1009.4
20260505093044 71 0 0.0 1.0 0.00 0.00 0.00 89 1009.4
20260505092544 71 36 0.0 1.0 0.00 0.00 0.00 89 1009.4
20260505092040 70 36 0.0 2.0 0.00 0.00 0.00 89 1009.3
20260505091552 70 0 0.0 2.0 0.00 0.00 0.00 88 1009.4
20260505091040 71 0 0.0 2.0 0.00 0.00 0.00 88 1009.4
20260505090540 71 0 0.0 2.0 0.00 0.00 0.00 88 1009.4
20260505090050 71 352 0.0 2.0 0.00 0.00 0.00 88 1009.5
20260505085541 71 0 0.0 2.0 0.00 0.00 0.00 88 1009.5
20260505085044 71 0 0.0 2.0 0.00 0.00 0.00 88 1009.5
20260505084551 71 70 0.0 1.0 0.00 0.00 0.00 88 1009.6
20260505084044 71 28 0.0 2.0 0.00 0.00 0.00 88 1009.6
20260505083543 71 0 0.0 2.0 0.00 0.00 0.00 88 1009.5
20260505083048 71 0 0.0 2.0 0.00 0.00 0.00 88 1009.6
20260505082541 71 20 0.0 2.0 0.00 0.00 0.00 88 1009.5
20260505082041 71 56 0.0 2.0 0.00 0.00 0.00 87 1009.7
20260505081554 71 49 1.0 2.0 0.00 0.00 0.00 87 1009.7
20260505081040 71 0 0.0 2.0 0.00 0.00 0.00 87 1009.7
20260505080543 71 43 0.0 2.0 0.00 0.00 0.00 87 1009.7
20260505080103 71 35 0.0 2.0 0.00 0.00 0.00 87 1009.7
20260505075542 71 40 1.0 2.0 0.00 0.00 0.00 87 1009.7
20260505075044 71 27 0.0 2.0 0.00 0.00 0.00 87 1009.8
20260505074553 70 50 0.0 2.0 0.00 0.00 0.00 87 1009.8
20260505074040 70 48 0.0 2.0 0.00 0.00 0.00 87 1009.8
20260505073540 70 0 0.0 3.0 0.00 0.00 0.00 87 1009.9
20260505073058 71 56 0.0 3.0 0.00 0.00 0.00 87 1010.0
20260505072545 70 111 0.0 5.0 0.00 0.00 0.00 87 1010.0
20260505072046 70 32 0.0 5.0 0.00 0.00 0.00 87 1010.0
20260505071552 70 36 1.0 5.0 0.00 0.00 0.00 87 1010.1
20260505071046 70 11 0.0 2.0 0.00 0.00 0.00 87 1010.1
20260505070546 70 32 0.0 2.0 0.00 0.00 0.00 87 1010.1
20260505070055 70 42 0.0 3.0 0.00 0.00 0.00 87 1010.2
20260505065546 70 61 1.0 3.0 0.00 0.00 0.00 87 1010.2
20260505065045 70 20 1.0 3.0 0.00 0.00 0.00 87 1010.2
20260505064547 70 0 0.0 2.0 0.00 0.00 0.00 87 1010.3
20260505064045 70 29 0.0 3.0 0.00 0.00 0.00 87 1010.6
20260505063545 70 30 0.0 3.0 0.00 0.00 0.00 87 1010.5
20260505063111 70 30 0.0 2.0 0.00 0.00 0.00 87 1010.6
20260505062546 70 35 0.0 2.0 0.00 0.00 0.00 87 1010.7
20260505062044 70 65 0.0 2.0 0.00 0.00 0.00 87 1010.7
20260505061548 70 84 0.0 2.0 0.00 0.00 0.00 86 1010.8
20260505061049 70 37 0.0 4.0 0.00 0.00 0.00 86 1010.7
20260505060545 70 6 1.0 4.0 0.00 0.00 0.00 86 1010.7
20260505060056 70 29 0.0 4.0 0.00 0.00 0.00 86 1010.7
20260505055546 70 0 0.0 4.0 0.00 0.00 0.00 86 1010.8
20260505055045 70 28 1.0 4.0 0.00 0.00 0.00 86 1010.9
20260505054604 70 59 0.0 2.0 0.00 0.00 0.00 86 1010.9
20260505054046 70 0 0.0 2.0 0.00 0.00 0.00 86 1010.9
20260505053544 70 13 0.0 2.0 0.00 0.00 0.00 86 1011.1
20260505053100 70 38 0.0 2.0 0.00 0.00 0.00 86 1011.0
20260505052545 70 49 0.0 2.0 0.00 0.00 0.00 86 1011.2
20260505052047 70 0 0.0 1.0 0.00 0.00 0.00 86 1011.3
20260505051553 70 56 0.0 1.0 0.00 0.00 0.00 86 1011.2
20260505051047 70 0 0.0 1.0 0.00 0.00 0.00 85 1011.2
20260505050545 71 0 0.0 1.0 0.00 0.00 0.00 85 1011.2
20260505041556 72 338 1.0 4.0 0.00 0.00 0.00 81 1011.3
20260505041044 72 330 2.0 4.0 0.00 0.00 0.00 81 1011.5
20260505040544 72 50 1.0 4.0 0.00 0.00 0.00 81 1011.4
20260505040055 73 8 1.0 4.0 0.00 0.00 0.00 81 1011.3
20260505035545 72 341 2.0 5.0 0.00 0.00 0.00 81 1011.3
20260505035048 72 297 2.0 5.0 0.00 0.00 0.00 81 1011.3
20260505034558 72 356 1.0 3.0 0.00 0.00 0.00 82 1011.4
20260505034049 72 22 1.0 3.0 0.00 0.00 0.00 82 1011.6
20260505033546 72 31 0.0 3.0 0.00 0.00 0.00 82 1011.7
20260505033056 72 6 0.0 1.0 0.00 0.00 0.00 83 1011.7
20260505032544 72 0 0.0 2.0 0.00 0.00 0.00 82 1011.6
20260505032046 72 352 0.0 2.0 0.00 0.00 0.00 82 1011.7
20260505031603 72 34 0.0 1.0 0.00 0.00 0.00 82 1011.6
20260505031045 72 0 0.0 2.0 0.00 0.00 0.00 82 1011.6
20260505030545 72 0 0.0 2.0 0.00 0.00 0.00 81 1011.5
20260505030103 72 94 0.0 2.0 0.00 0.00 0.00 81 1011.4
20260505025546 72 15 0.0 2.0 0.00 0.00 0.00 81 1011.5
20260505025045 72 18 0.0 2.0 0.00 0.00 0.00 81 1011.5
20260505024603 72 0 0.0 1.0 0.00 0.00 0.00 81 1011.6
20260505024045 72 0 0.0 1.0 0.00 0.00 0.00 81 1011.5
20260505023545 72 45 0.0 2.0 0.00 0.00 0.00 81 1011.5
20260505023059 72 51 0.0 2.0 0.00 0.00 0.00 81 1011.6
20260505022545 72 53 0.0 2.0 0.00 0.00 0.00 81 1011.5
20260505022045 72 135 0.0 3.0 0.00 0.00 0.00 81 1011.5
20260505021559 72 0 0.0 3.0 0.00 0.00 0.00 81 1011.5
20260505021044 72 7 0.0 2.0 0.00 0.00 0.00 81 1011.5
20260505020542 72 0 0.0 2.0 0.00 0.00 0.00 81 1011.5
20260505020053 72 360 0.0 1.0 0.00 0.00 0.00 80 1011.4
20260505015550 72 356 0.0 3.0 0.00 0.00 0.00 80 1011.2
20260505015046 72 27 0.0 3.0 0.00 0.00 0.00 80 1011.1
20260505014608 72 40 0.0 2.0 0.00 0.00 0.00 80 1011.0
20260505014047 72 23 0.0 2.0 0.00 0.00 0.00 80 1010.9
20260505013543 72 18 0.0 2.0 0.00 0.00 0.00 79 1011.0
20260505013049 72 38 0.0 3.0 0.00 0.00 0.00 79 1011.0
20260505012543 72 14 0.0 3.0 0.00 0.00 0.00 78 1011.0
20260505012045 73 339 1.0 2.0 0.00 0.00 0.00 78 1011.1
20260505011556 73 0 1.0 2.0 0.00 0.00 0.00 78 1011.1
20260505011044 73 0 0.0 2.0 0.00 0.00 0.00 78 1011.0
20260505010540 73 25 0.0 2.0 0.00 0.00 0.00 77 1011.0
20260505010048 73 8 1.0 2.0 0.00 0.00 0.00 77 1011.1
20260505005544 74 28 0.0 2.0 0.00 0.00 0.00 76 1011.1
20260505005047 74 30 0.0 4.0 0.00 0.00 0.00 76 1010.9
20260505004547 74 44 0.0 4.0 0.00 0.00 0.00 75 1010.8
20260505004043 74 9 1.0 4.0 0.00 0.00 0.00 75 1010.8
20260505003543 74 338 1.0 4.0 0.00 0.00 0.00 75 1010.8
20260505003049 74 39 0.0 3.0 0.00 0.00 0.00 75 1010.9
20260505002540 75 349 1.0 4.0 0.00 0.00 0.00 75 1010.9
20260505002046 75 316 1.0 4.0 0.00 0.00 0.00 74 1011.0
20260505001545 75 357 1.0 3.0 0.00 0.00 0.00 75 1011.0
20260505001045 75 304 0.0 3.0 0.00 0.00 0.00 75 1011.1
20260505000540 75 356 1.0 4.0 0.00 0.00 0.00 74 1011.1
20260504235540 75 25 1.0 4.0 0.00 0.00 0.00 74 1011.1
20260504235040 75 355 1.0 4.0 0.00 0.00 0.00 74 1011.1
20260504234550 76 289 0.0 3.0 0.00 0.00 0.00 74 1011.1
20260504234043 76 18 1.0 3.0 0.00 0.00 0.00 73 1011.1
20260504233543 76 0 0.0 4.0 0.00 0.00 0.00 74 1011.1
20260504233105 76 46 0.0 4.0 0.00 0.00 0.00 73 1011.2
20260504232544 76 337 1.0 4.0 0.00 0.00 0.00 72 1011.2
20260504232044 76 345 0.0 4.0 0.00 0.00 0.00 72 1011.3
20260504231548 77 0 1.0 3.0 0.00 0.00 0.00 72 1011.5
20260504231041 77 359 0.0 3.0 0.00 0.00 0.00 71 1011.4
20260504230540 77 36 1.0 4.0 0.00 0.00 0.00 70 1011.5
20260504230050 78 34 1.0 4.0 0.00 0.00 0.00 70 1011.4
20260504225541 78 30 1.0 4.0 0.00 0.00 0.00 69 1011.4
20260504225042 78 356 1.0 3.0 0.00 0.00 0.00 69 1011.4
20260504224553 77 325 0.0 4.0 0.00 0.00 0.00 70 1011.6
20260504224044 77 326 1.0 4.0 0.00 0.00 0.00 70 1011.7
20260504223544 77 335 1.0 4.0 0.00 0.00 0.00 69 1011.7
20260504223110 78 45 1.0 4.0 0.00 0.00 0.00 68 1011.8
20260504222544 78 353 1.0 4.0 0.00 0.00 0.00 68 1011.9
20260504222043 79 0 1.0 3.0 0.00 0.00 0.00 68 1012.0
20260504221556 79 0 1.0 3.0 0.00 0.00 0.00 67 1011.9
20260504221046 79 6 1.0 3.0 0.00 0.00 0.00 66 1011.8
20260504220544 80 338 1.0 4.0 0.00 0.00 0.00 66 1011.9
20260504220057 80 335 2.0 4.0 0.00 0.00 0.00 65 1011.8
20260504215544 80 323 1.0 4.0 0.00 0.00 0.00 64 1012.0
20260504215045 81 359 1.0 8.0 0.00 0.00 0.00 64 1012.0
20260504214552 82 26 1.0 8.0 0.00 0.00 0.00 62 1012.0
20260504214048 82 331 2.0 4.0 0.00 0.00 0.00 63 1012.1
20260504213540 82 348 1.0 4.0 0.00 0.00 0.00 63 1012.0
20260504213105 82 51 2.0 4.0 0.00 0.00 0.00 62 1012.0
20260504212544 82 18 1.0 4.0 0.00 0.00 0.00 62 1012.2
20260504212040 83 23 1.0 3.0 0.00 0.00 0.00 62 1012.3
20260504211553 82 0 0.0 4.0 0.00 0.00 0.00 62 1012.4
20260504211044 83 0 1.0 4.0 0.00 0.00 0.00 60 1012.3
20260504210546 83 360 1.0 4.0 0.00 0.00 0.00 59 1012.3
20260504210058 84 73 1.0 4.0 0.00 0.00 0.00 58 1012.5
20260504205544 84 22 1.0 4.0 0.00 0.00 0.00 59 1012.6
20260504205047 84 0 1.0 3.0 0.00 0.00 0.00 59 1012.7
20260504204549 83 19 1.0 5.0 0.00 0.00 0.00 58 1012.7
20260504204043 83 345 1.0 5.0 0.00 0.00 0.00 60 1012.6
20260504203540 83 332 1.0 4.0 0.00 0.00 0.00 60 1012.8
20260504203105 82 1 1.0 3.0 0.00 0.00 0.00 61 1012.9
20260504202540 82 353 1.0 5.0 0.00 0.00 0.00 58 1013.0
20260504202043 82 30 1.0 5.0 0.00 0.00 0.00 59 1013.0
20260504201554 82 53 2.0 5.0 0.00 0.00 0.00 56 1013.1
20260504201044 83 327 1.0 4.0 0.00 0.00 0.00 57 1013.1
20260504200544 83 359 1.0 4.0 0.00 0.00 0.00 58 1013.2
20260504200056 83 360 1.0 4.0 0.00 0.00 0.00 57 1013.4
20260504195544 83 11 1.0 4.0 0.00 0.00 0.00 57 1013.4
20260504195044 83 5 1.0 4.0 0.00 0.00 0.00 56 1013.4
20260504194622 82 349 1.0 4.0 0.00 0.00 0.00 57 1013.6
20260504194551 82 349 1.0 4.0 0.00 0.00 0.00 57 1013.6
20260504194047 83 264 1.0 4.0 0.00 0.00 0.00 56 1013.7
20260504193547 83 339 1.0 4.0 0.00 0.00 0.00 56 1013.7
20260504193054 82 44 1.0 3.0 0.00 0.00 0.00 57 1013.7
20260504192543 82 340 1.0 3.0 0.00 0.00 0.00 59 1013.8
20260504192044 81 66 1.0 3.0 0.00 0.00 0.00 58 1013.8
20260504191554 82 359 1.0 4.0 0.00 0.00 0.00 57 1014.1
20260504191043 82 3 1.0 4.0 0.00 0.00 0.00 59 1014.1
20260504190543 82 355 1.0 4.0 0.00 0.00 0.00 58 1014.1
20260504190053 81 340 1.0 4.0 0.00 0.00 0.00 59 1014.3
20260504185544 81 103 1.0 3.0 0.00 0.00 0.00 59 1014.2
20260504185043 81 349 1.0 3.0 0.00 0.00 0.00 59 1014.3
20260504184545 81 358 1.0 3.0 0.00 0.00 0.00 59 1014.4
20260504184043 80 3 1.0 4.0 0.00 0.00 0.00 59 1014.4